Regional Weather Roundup
Issued by NWS Newport/Morehead, NC

Current Version | Previous Version | Graphics & Text | Print | Product List | Glossary Off
Versions: 1 2 3 4 5 6 7 8 9 10 11 12 13 14 15 16 17 18 19 20 21 22 23 24 25 26 27 28 29 30 31 32 33 34 35 36 37 38 39 40 41 42 43 44 45 46 47 48 49 50

000
ASUS42 KMHX 050413
RWRMHX
WEATHER ROUNDUP FOR EASTERN NORTH CAROLINA
NATIONAL WEATHER SERVICE NEWPORT/MOREHEAD CITY NC
1200 AM EDT SUN JUL 05 2015

NOTE: "FAIR" INDICATES FEW OR NO CLOUDS BELOW 12,000 FEET
WITH NO SIGNIFICANT WEATHER AND/OR OBSTRUCTIONS TO VISIBILITY

NCZ015>017-031-032-045>047-102-103-050500-
NORTH COAST

CITY           SKY/WX    TMP DP  RH WIND       PRES   REMARKS
EDENTON        LGT RAIN  80  72  75 SW7       30.03R
ELIZABETH CITY PTCLDY    76  74  93 SW3       30.02S
KITTY HAWK     CLOUDY    78  72  81 SW6       30.01S
MANTEO         MOCLDY    78  74  88 SW8       30.03S

$$

NCZ045>047-081-094-103-104-050500-
CENTRAL COAST

CITY           SKY/WX    TMP DP  RH WIND       PRES   REMARKS
FRISCO         MOCLDY    78  75  90 SW13      30.06R
SWANQUARTER      N/A     81 N/A N/A SW9G17    30.00S

$$

NCZ095-097-098-100-101-050500-
SOUTHERN COAST

CITY           SKY/WX    TMP DP  RH WIND       PRES   REMARKS
BEAUFORT       PTCLDY    80  78  94 SW20      30.07R
CEDAR ISLAND     N/A     81 N/A N/A S13G20    30.09S
JACKSONVILLE   CLEAR     78  72  81 SW5       30.06R
PINEY ISLAND   PTCLDY   N/A N/A N/A SW12      30.06R
WILMINGTON     PTCLDY    80  74  81 S9        30.07R


$$

NCZ011>013-027>030-043-044-078>080-089-090>093-098-050500-
COASTAL PLAIN

CITY           SKY/WX    TMP DP  RH WIND       PRES   REMARKS
AHOSKIE        MOCLDY   N/A N/A N/A CALM      30.03S
CLINTON        PTCLDY    77  72  85 S3        30.05S
ELIZABETHTOWN  PTCLDY    78  73  84 CALM      30.06R
GOLDSBORO      LGT RAIN  79  68  69 VRB5      30.03R
GREENVILLE     PTCLDY    79  70  73 SW7       30.05S
HAVELOCK       PTCLDY    80  74  81 SW12      30.07R
KENANSVILLE    CLEAR     77  71  81 CALM      30.06R
KINSTON        CLEAR     79  70  73 S7        30.05S
NEW BERN       PTCLDY    79  72  79 S6        30.07R
RICHLANDS      CLEAR     77  70  78 S7        30.07R
ROCKY MOUNT    PTCLDY    77  70  79 SW10      30.03S
WASHINGTON     MOCLDY    79  69  70 S3        30.04S
WHITEVILLE     PTCLDY    78  73  83 SW3       30.06S

$$

AMZ130-135-150-152-154-156-158-170-250-252-270-ANZ085-086-088-633-658-670-050500-
MARINE OBSERVATIONS

STATION/POSITION TIME  TEMP    WIND        PRES    WAVE   SWELL
                       AIR SEA DIR/SP/G            HT/PER HT/PER
                 (UTC) (F)     (DEG/KT/KT) (MB)    (FT/S) (FT/S)
CHESAPEAKE LIGHT 0400   76     310/ 10/ 11 1017.1
64 E VA BEACH    0350   78 76  230/ 12/ 14 1015.6    5/ 7   3/ 7
DUCK             0300   80 73  230/  9/ 11   N/A
2 E DUCK         0311      77                N/A     2/14
OREGON INLET     0300   80 82  230/ 11/ 13 1016.7
13E OREGON INLT  0300      72                N/A     5/ 6
HATTERAS CG      0300   79 80  220/ 10/ 16 1017.3
DIAMOND BUOY     0350   81 81  240/ 21/ 25 1017.1    6/ 6   2/ 9
CAPE LOOKOUT     0400   80     230/ 12/ 17 1018.2
BEAUFORT LAB     0300   80 80  220/  6/ 13 1017.3
30 SE NEW RVR IN NOT AVBL
27 SE WRIGHTSVLE 0300      80  230/ 17/ 19   N/A
5 SE WRIGHTSVLE  0308   80 78  230/ 16/ 19 1018.1
225 S CAPE HAT   0350   81 80  230/  8/ 12 1021.8    5/ 6   5/ 6
41 SE CHARLESTON 0350   81 82  210/ 12/ 14 1019.0    3/ 9   2/ 9

$$


USA.gov is the U.S. government's official web portal to all federal, state and local government web resources and services.